Regional Weather Roundup
Issued by NWS State College, PA

Current Version | Previous Version | Text Only | Print | Product List | Glossary On
Versions: 1 2 3 4 5 6 7 8 9 10 11 12 13 14 15 16 17 18 19 20 21 22 23 24 25 26 27 28 29 30 31 32 33 34 35 36 37 38 39 40 41 42 43 44 45 46 47 48 49 50
000
ASUS41 KCTP 032110
RWRCTP

REGIONAL WEATHER ROUNDUP
NATIONAL WEATHER SERVICE STATE COLLEGE PA
500 PM EDT MON AUG 03 2020

Note: "fair" indicates few or no clouds below 12,000 feet with no
significant weather and/or obstructions to visibility.

* = STATION THAT DOES NOT REPORT PRECIPITATION /E.G. RAIN...SNOW...ETC/
    THUNDER OR FOG.

PAZ002>004-007>009-013>016-020>023-029>032-032200-
WESTERN PENNSYLVANIA

CITY           SKY/WX    TMP DP  RH WIND       PRES   REMARKS
ERIE           LGT RAIN  71  66  84 S7        29.98R
MEADVILLE      CLOUDY    73  67  81 CALM      29.99F
FRANKLIN       CLOUDY    79  63  57 SW6       30.00F
NEW CASTLE     MOCLDY    80  65  59 VRB5      29.98S
BEAVER COUNTY  MOSUNNY   82  61  47 SW6       29.98F
BUTLER         CLOUDY    80  63  55 S5        29.99S
PITTSBURGH INT CLOUDY    81  59  47 S6        29.97F
PITTSBURGH     CLOUDY    80  61  52 S10       29.98S
INDIANA*       SUNNY     82  63  51 S5        30.05S
LATROBE        PTSUNNY   82  61  47 VRB7      30.30R
WASHINGTON CO* CLOUDY    81  63  54 S10       30.01S
$$

PAZ004>006-010>012-017>019-024>028-033>037-041-042-045-046-049>053-032200-
CENTRAL PENNSYLVANIA

CITY           SKY/WX    TMP DP  RH WIND       PRES   REMARKS
BRADFORD       CLOUDY    76  60  57 S5        30.03F
ST MARYS       MOCLDY    77  63  61 SE5       30.06S
DUBOIS         CLOUDY    79  57  46 S7        30.01F
CLEARFIELD     CLOUDY    82  55  39 S7        30.02S
JOHNSTOWN      CLOUDY    75  61  61 S13       30.06S
SOMERSET       CLOUDY    73  61  64 S9G17     30.07S
ALTOONA        CLOUDY    78  61  55 S12       30.04F
STATE COLLEGE  MOSUNNY   81  61  50 S6        30.02F
REEDSVILLE     FAIR      88  59  37 S8        30.00S
WELLSBORO      FAIR      79  59  50 S10       30.03F
WILLIAMSPORT   MOSUNNY   87  59  38 SE9       29.98S
SELINSGROVE    PTSUNNY   84  62  47 S10G20    30.01S
FT INDIANTOWN  PTSUNNY   83  65  53 S5        30.03R
CAPITAL CITY   CLOUDY    85  63  47 SW6       30.02R
HARRISBURG     CLOUDY    85  63  47 S7        30.02R
YORK           CLOUDY    82  65  56 SE6       30.04R
$$

PAZ038>040-043-044-047-048-054-055-060>062-067>071-032200-
EASTERN PENNSYLVANIA

CITY           SKY/WX    TMP DP  RH WIND       PRES   REMARKS
TOWANDA        PTCLDY    82  61  47 CALM      30.00S
SCRANTON       MOSUNNY   87  58  37 W12G18    30.03S
MOUNT POCONO   PTSUNNY   77  60  55 S10       30.09S
HAZLETON       FAIR      79  61  53 S5        30.10S
LEHIGHTON      FAIR      82  64  54 SW6       30.03S
ALLENTOWN      PTSUNNY   84  64  50 W8        30.02F
QN CITY/ALNTWN FAIR      82  68  61 SW8       30.04R
QUAKERTOWN*    PTCLDY    84  66  54 SW6       30.05R
PERKASIE*      MOCLDY    84  64  51 W7        30.05R
DOYLESTOWN     PTSUNNY   87  63  44 S8        30.03R
READING        CLOUDY    85  65  51 W7        30.01F
LANCASTER      CLOUDY    83  63  50 SW8       30.03R
COATESVILLE    CLOUDY    82  66  57 CALM      30.07R
WEST CHESTER   CLOUDY    86  63  45 CALM      30.04S
POTTSTOWN      CLOUDY    85  63  47 SW6       30.05R
BLUE BELL      CLOUDY    87  67  52 S7        30.04R
NORTH PHILA    CLOUDY    86  66  51 S9        30.03R
PHILADELPHIA   CLOUDY    86  66  51 S10G21    30.03R
$$



USA.gov is the U.S. government's official web portal to all federal, state and local government web resources and services.